Simultaneous Nadir Overpasses (SNOs) Predictions

Prediction of SNOs between METOP-A and TERRA Satellite Orbit:

Table of predicted SNOs for the next 14.0 days since TLE Epoch: 4/10/2021
Index Date (METOP-A) Time (METOP-A) Lat,Lon (METOP-A) SZA (METOP-A ) Date (TERRA) Time (TERRA) Lat,Lon (TERRA) SZA (TERRA ) Distance(km) Time Diff (sec)
1 04/12/2021 08:17:41 -81.33, -77.56 104.73 04/12/2021 08:18:08 -81.34, -77.54 104.71 0.76 27
2 04/12/2021 09:08:22 81.33, 89.80 75.26 04/12/2021 09:07:35 81.32, 89.83 75.24 1.02 47
3 04/15/2021 03:52:01 -81.33, -11.08 105.72 04/15/2021 03:52:21 -81.33, -11.26 105.73 2.96 20
4 04/15/2021 04:42:42 81.33, 156.23 74.27 04/15/2021 04:41:48 81.31, 156.09 74.22 2.85 54
5 04/17/2021 23:26:22 -81.32, 55.37 106.68 04/17/2021 23:26:34 -81.34, 55.36 106.67 1.89 12
6 04/18/2021 00:17:03 81.32,-137.35 73.30 04/18/2021 00:16:01 81.32,-137.31 73.28 0.66 62
7 04/20/2021 19:00:44 -81.33, 121.42 107.66 04/20/2021 19:00:48 -81.33, 121.57 107.65 2.59 4
8 04/20/2021 19:51:24 81.32, -70.95 72.36 04/20/2021 19:50:14 81.33, -70.75 72.35 3.41 70
9 04/23/2021 13:44:23 81.33, 20.55 71.43 04/23/2021 13:45:33 81.33, 20.48 71.46 1.37 70
10 04/23/2021 14:35:03 -81.32,-171.78 108.56 04/23/2021 14:35:00 -81.33,-171.89 108.56 2.47 3



Historial Predications of SNOs between METOP-A and TERRA
